Regional Weather Roundup
Issued by NWS Newport/Morehead, NC

Current Version | Previous Version | Graphics & Text | Print | Product List | Glossary Off
Versions: 1 2 3 4 5 6 7 8 9 10 11 12 13 14 15 16 17 18 19 20 21 22 23 24 25 26 27 28 29 30 31 32 33 34 35 36 37 38 39 40 41 42 43 44 45 46 47 48 49 50

000
ASUS42 KMHX 011110
RWRMHX
WEATHER ROUNDUP FOR EASTERN NORTH CAROLINA
NATIONAL WEATHER SERVICE NEWPORT/MOREHEAD CITY NC
700 AM EDT FRI AUG 01 2014

NOTE: "FAIR" INDICATES FEW OR NO CLOUDS BELOW 12,000 FEET
WITH NO SIGNIFICANT WEATHER AND/OR OBSTRUCTIONS TO VISIBILITY

NCZ015>017-031-032-045>047-102-103-011200-
NORTH COAST

CITY           SKY/WX    TMP DP  RH WIND       PRES   REMARKS
EDENTON        CLOUDY    70  68  93 NE3       30.13R
ELIZABETH CITY CLOUDY    74  69  85 NE7       30.13S
KITTY HAWK     CLOUDY    76  69  79 E6        30.12R
MANTEO         NOT AVBL

$$

NCZ045>047-081-094-103-104-011200-
CENTRAL COAST

CITY           SKY/WX    TMP DP  RH WIND       PRES   REMARKS
FRISCO         CLOUDY    78  73  84 E7        30.10R
SWANQUARTER      N/A     73 N/A N/A E14       30.06S

$$

NCZ095-097-098-100-101-011200-
SOUTHERN COAST

CITY           SKY/WX    TMP DP  RH WIND       PRES   REMARKS
BEAUFORT       RAIN      80  73  79 E8        30.07R
CEDAR ISLAND     N/A     79 N/A N/A NE16      30.12S
JACKSONVILLE   TSTM      73  71  93 NE9       30.04S
NEWPORT        NOT AVBL
PINEY ISLAND   NOT AVBL
WILMINGTON     RAIN      74  71  91 SE6       30.05R FOG


$$

NCZ011>013-027>030-043-044-078>080-089-090>093-098-011200-
COASTAL PLAIN

CITY           SKY/WX    TMP DP  RH WIND       PRES   REMARKS
AHOSKIE        CLOUDY    69  66  90 N6        30.13S
CLINTON        CLOUDY    73  70  93 CALM      30.06F
ELIZABETHTOWN  RAIN      72  72 100 E5        30.05S
GOLDSBORO      CLOUDY    71  71  98 NE7       30.06F
GREENVILLE     CLOUDY    72  68  88 NE3       30.11F
HAVELOCK       CLOUDY    77  72  84 E10       30.07F
KENANSVILLE    CLOUDY    70  68  93 NE3       30.08S FOG
KINSTON        CLOUDY    72  70  94 NE6       30.09S FOG
NEW BERN       CLOUDY    75  70  84 NE6       30.08S
RICHLANDS      CLOUDY    72  68  88 NE9       30.06S
ROANOKE RAPIDS NOT AVBL
ROCKY MOUNT    CLOUDY    70  66  87 NE5       30.12R
WASHINGTON     CLOUDY    69  67  93 N5        30.10R
WHITEVILLE     LGT RAIN  72  70  95 CALM      30.05R

$$

AMZ130-135-150-152-154-156-158-170-250-252-270-ANZ085-086-088-633-658-670-011200-
MARINE OBSERVATIONS

STATION/POSITION TIME  TEMP    WIND        PRES    WAVE   SWELL
                       AIR SEA DIR/SP/G            HT/PER HT/PER
                 (UTC) (F)     (DEG/KT/KT) (MB)    (FT/S) (FT/S)
CHESAPEAKE LIGHT NOT AVBL
BUOY 44014       1100   77 78   80/ 10/ 12 1020.3    2/ 7   2/ 7
DUCK             1100   77 76   80/ 10/ 12 1019.6
2E DUCK          1000                        N/A     3/ 6
OREGON INLET     1100   77 79   60/  9/ 12 1019.8
BUOY 44095       1100      78                N/A     3/ 6
20E OREGON INLET NOT AVBL
HATTERAS CG      1100   78 80   70/  7/  9 1019.3
DIAMOND BUOY     1100          VRB 16/ 19  1018.4    4/ 6   2/11
CAPE LOOKOUT     1000   80      90/ 15/ 18 1017.7
BEAUFORT LAB     1100   80 81  110/  9/ 11 1017.8
30 SE NEW RIVER  1100   79 81  140/ 14/ 14 1017.7    5/ 7   3/ 7
5 SE WRIGHTSVILL 1000   71 81  150/ 21/ 23   N/A
BUOY 41002       1028   81 81  160/ 14/ 16 1018.7    3/ 7   2/ 7
BUOY 41004       1100   81 83  200/ 12/ 16 1014.6    4/ 5   2/ 6

$$



USA.gov is the U.S. government's official web portal to all federal, state and local government web resources and services.